Flag for Germany Weather past 2 weeks in Sinsheim, Baden-Württemberg, Germany

Now
54 °F

Clear.


Feels Like: 54 °F
Forecast: 52 / 71 °F
Wind: 1 mph from Northeast

Location: Baden Wurttemberg - Neuostheim

Current Time: Sep 2, 2014 at 7:17:54 AM

Latest Report: Sep 2, 2014 at 6:50 AM


Visibility: 10 mi

Pressure: 30.15 "Hg

Humidity: 94%

Dew point: 52 °F

Location of SinsheimLocation

Historic Weather in Sinsheim — Graph

°F

Sinsheim temperature yesterday

Maximum temperature yesterday: 64 °F (at 12:50 PM)
Minimum temperature yesterday: 50 °F (at 6:20 AM)
Average temperature yesterday: 61 °F

Past Weeks' High & Low Weather Summary

 TemperatureHumidityPressure
High77 °F (Aug 29, 3:50 PM)100% (Aug 19, 5:50 AM)30.15 "Hg (Aug 19, 5:50 AM)
Low48 °F (Aug 20, 5:50 AM)33% (Aug 21, 4:20 PM)29.65 "Hg (Aug 26, 5:50 AM)
Average63 °F68%29.98 "Hg
* Reported Aug 18 5:50 AM — Sep 2 5:50 AM, Sinsheim, Weather by CustomWeather, © 2014

Note: Actual official high and low records may vary slightly from our data, if they occured in-between our weather recording intervals... More about our weather records

Advertising

Sinsheim weather history for previous 24 hours

 ConditionsComfort  
Time TempWeatherWind HumidityBarometerVisibility
5:50 AM
Sep 2
54 °FClear.2 mph94%30.12 "Hg10 mi
5:20 AM55 °FClear.No wind94%30.12 "Hg10 mi
8:50 PM
Sep 1
63 °FSunny.1 mph73%30.15 "Hg10 mi
8:20 PM63 °FSunny.3 mph68%30.15 "Hg10 mi
7:50 PM64 °FPassing clouds.5 mph64%30.15 "HgN/A
7:20 PM64 °FSunny.3 mph64%30.12 "Hg10 mi
6:50 PM64 °FMore clouds than sun.5 mph60%30.15 "HgN/A
6:20 PM64 °FBroken clouds.1 mph60%30.15 "HgN/A
5:50 PM64 °FMore clouds than sun.2 mph64%30.15 "HgN/A
5:20 PM64 °FMostly cloudy.2 mph64%30.15 "HgN/A
4:50 PM64 °FBroken clouds.3 mph64%30.15 "HgN/A
4:20 PM64 °FBroken clouds.5 mph64%30.15 "HgN/A
3:50 PM64 °FBroken clouds.7 mph60%30.15 "HgN/A
3:20 PM64 °FPartly sunny.3 mph60%30.15 "HgN/A
2:50 PM64 °FSunny.3 mph60%30.15 "Hg10 mi
2:20 PM64 °FBroken clouds.5 mph60%30.15 "HgN/A
1:50 PM64 °FOvercast.3 mph64%30.15 "HgN/A
1:20 PM63 °FBroken clouds.5 mph64%30.15 "HgN/A
12:50 PM64 °FBroken clouds.2 mph60%30.15 "HgN/A
12:20 PM63 °FPartly sunny.3 mph64%30.15 "HgN/A
11:50 AM61 °FBroken clouds.5 mph72%30.15 "HgN/A
11:20 AM61 °FBroken clouds.6 mph72%30.15 "HgN/A
10:50 AM59 °FScattered clouds.6 mph72%30.15 "HgN/A
10:20 AM59 °FPartly sunny.5 mph77%30.15 "HgN/A
9:50 AM57 °FPartly sunny.2 mph82%30.12 "HgN/A
9:20 AM57 °FBroken clouds.5 mph82%30.12 "HgN/A
8:50 AM55 °FBroken clouds.3 mph88%30.12 "HgN/A
8:20 AM55 °FPartly sunny.3 mph88%30.12 "HgN/A
7:50 AM55 °FBroken clouds.2 mph88%30.12 "HgN/A
7:20 AM55 °FPassing clouds.2 mph94%30.09 "HgN/A
Weather by CustomWeather, © 2014

See weather overviewHow to use our weather pages